Weather in Anshun

China     26°14′41″N   105°55′32″E
temp.,
°C
wind,
m/s
gust,
m/s
humid.,
%
clouds,
%
prec.,
mm/h
press.,
hPa
HPBL,
m
17 september, fri
fri1723:00+19se3898100 7.2 1011230
02:00+19se0199100 19.2 101062
05:00+18ssw2699100 8.8 1010324
08:00+18s1497100 9.6 1011259
11:00+19s3594100 0.5 1012379
14:00+24s567395 0.8 10081122
17:00+23sse578362 1.3 1007900
20:00+19se379786 1.6 1009242
18 september, sat
sat1823:00+19sse2799100 6.4 1010263
02:00+19sse4899100 10.9 1010396
05:00+19s4998100 3.6 1009563
08:00+19sse5995100 4.3 1010565
11:00+21s6108990 0.2 1010792
14:00+24s81076100 0.6 10071104
17:00+24s697913 0.1 10061019
20:00+20sse5119491 0.2 1008519
19 september, sun
sun1923:00+19sse3898100 0.1 1011376
02:00+19s3997100 1.0 1010572
05:00+16nnw61292100 9.8 1012611
08:00+16n3988100 11.6 1014506
11:00+17nnw4882100 0.1 1015497
14:00+17nnw1380100 0.1 1013230
17:00+17nnw1281100 0.0 1013138
20:00+17w1180100 0.0 101411
20 september, mon
mon2023:00+16s118297 0.0 101511
02:00+15nw11863 0.0 101511
05:00+14nnw118612 0.0 101511
08:00+16n12780 0.0 101568
11:00+21ne23550 0.0 1015857
14:00+23ene22480 0.0 10121322
17:00+23e22530 0.0 10111329
20:00+18ese11720 0.0 101211
21 september, tue
tue2123:00+17ene11760 0.0 101411
02:00+16n11810 0.0 101311
05:00+15s00850 0.0 101311
08:00+17sw11810 0.0 101471
11:00+22ssw33680 0.0 1013827
14:00+25ssw44611 0.0 10101181
17:00+24s45642 0.0 1008964
20:00+18s22871 0.6 101013